{"data":{"norad_id":68079,"intl_designator":"2026-042L","name":"STARLINK-37063","alt_names":[],"object_type":"PAYLOAD","status":"ACTIVE","operator":null,"country":"US","launch_date":"2026-03-04","launch_site_code":"AFETR","launch_vehicle":null,"mission":null,"orbit_class":"UNKNOWN","rcs_meters":null,"size_class":null,"mass_kg":null,"dimensions":null,"purposes":["comms"],"wikipedia_slug":null,"has_3d_model":false,"image_url":null,"decayed_at":null,"tle_current":{"epoch":"2026-05-24T12:33:57.549600Z","epoch_age_seconds":112647,"freshness":"FRESH","line1":"1 68079U 26042L   26144.52358275  .00023618  00000+0  70814-3 0  9990","line2":"2 68079  53.1588 185.9143 0001167  83.8807 276.2329 15.34390799 13928","mean_motion":15.34390799,"eccentricity":0.0001167,"inclination_deg":53.1588,"raan_deg":185.9143,"arg_perigee_deg":83.8807,"mean_anomaly_deg":276.2329,"bstar":0.00070814,"rev_number":1392,"period_min":93.84832084098,"perigee_km":461.93225840731,"apogee_km":463.52891690226,"semimajor_km":6840.8675876548,"source":"CELESTRAK","updated_at":"2026-05-25T13:38:21.819188Z"}}}